Weather in Nogkau

Russia / Republic of North Ossetia — Alania     43°05′43″N   44°17′28″E
В апреле 2022 года жителям России запретили посещать сайт meteo.paraplan.net по решению Генеральной прокуратуры. Аудитория сайта уменьшилась в 10 раз. Владельцы сайта не видят смысла в поддержке погодного сервера в таких условиях. Сайт будет закрыт в октябре.
temp.,
°C
wind,
m/s
gust,
m/s
humid.,
%
clouds,
%
prec.,
mm/h
press.,
hPa
HPBL,
m
30 september, fri
fri3000:00+13ssw22670 0.0 101818
03:00+13ssw22600 0.0 101919
06:00+12ssw32550 0.0 102023
09:00+18nne21500 0.0 1019407
12:00+21nne32500 0.0 10191092
15:00+22nne324824 0.0 10191529
18:00+17se116728 0.0 102011
21:00+16ssw32688 0.0 102129
1 october, sat
sat100:00+15ssw32540 0.0 102125
03:00+14ssw32521 0.0 102224
06:00+14ssw32530 0.0 102324
09:00+19nne21450 0.0 1022454
12:00+22nne32430 0.0 10211264
15:00+22nne114124 0.0 10211699
18:00+18s115657 0.0 102113
21:00+15ssw33621 0.0 102130
2 october, sun
sun200:00+15ssw32585 0.0 102024
03:00+14ssw32553 0.0 102025
06:00+14ssw33525 0.0 101828
09:00+20nne214084 0.0 1016486
12:00+22nne224099 0.0 1014903
15:00+23nne32385 0.0 10111300
18:00+17s1155100 0.0 101112
21:00+16ssw3351100 0.0 101041
3 october, mon
mon300:00+16ssw3452100 0.0 100764
03:00+16ssw3351100 0.0 100662
06:00+16ssw2250100 0.0 100640
09:00+19nnw1246100 0.0 1006129
12:00+20nnw334449 0.0 10091028
15:00+20n434995 0.0 10091327
18:00+16wnw226781 0.0 101287
21:00+15wnw2469100 0.0 1015394
4 october, tue
tue400:00+13n3495100 0.6 1016405
03:00+11wnw1294100 1.3 1017200
06:00+11n1295100 0.3 1018306
09:00+10n2297100 0.8 1019266
12:00+10n2296100 0.6 1020314
15:00+9n2396100 1.4 1021312
18:00+9nne1196100 2.6 1023155
21:00+9ssw119679 2.7 102338